Hourly Weather Otrezy

Today, 30 July, Friday

Time Temperature Precipitation Wind Pressure Humidity
00:00 +20°C° 0.1 mm 0 mps 740 mmHg 77%
01:00 +22°C° 0 mm 1 mps 740 mmHg 79%
02:00 +21°C° 0 mm 1 mps 740 mmHg 80%
03:00 +21°C° 0 mm 1 mps 740 mmHg 82%
04:00 +21°C° 0 mm 1 mps 740 mmHg 82%
05:00 +21°C° 0 mm 1 mps 740 mmHg 81%
06:00 +22°C° 0 mm 1 mps 740 mmHg 81%
07:00 +24°C° 0 mm 2 mps 740 mmHg 73%
08:00 +26°C° 0 mm 2 mps 740 mmHg 66%
09:00 +28°C° 0 mm 3 mps 740 mmHg 59%
10:00 +29°C° 0 mm 3 mps 740 mmHg 54%
11:00 +30°C° 0 mm 4 mps 739 mmHg 48%
12:00 +33°C° 0 mm 4 mps 739 mmHg 43%
13:00 +32°C° 0 mm 4 mps 739 mmHg 44%
14:00 +32°C° 0 mm 4 mps 738 mmHg 44%
15:00 +30°C° 0 mm 4 mps 738 mmHg 48%
16:00 +29°C° 0.1 mm 4 mps 737 mmHg 55%
17:00 +28°C° 0.1 mm 4 mps 737 mmHg 61%
18:00 +27°C° 0.1 mm 4 mps 737 mmHg 67%
19:00 +25°C° 0.3 mm 3 mps 738 mmHg 76%
20:00 +23°C° 0.3 mm 2 mps 738 mmHg 85%
21:00 +21°C° 0.3 mm 1 mps 738 mmHg 94%
22:00 +20°C° 0 mm 2 mps 738 mmHg 94%
23:00 +20°C° 0 mm 2 mps 738 mmHg 94%

Tomorrow, 31 July, Saturday

Time Temperature Precipitation Wind Pressure Humidity
00:00 +20°C° 0 mm 2 mps 739 mmHg 94%
01:00 +19°C° 0 mm 3 mps 739 mmHg 94%
02:00 +19°C° 0 mm 3 mps 739 mmHg 95%
03:00 +19°C° 0 mm 3 mps 739 mmHg 95%
04:00 +19°C° 0 mm 3 mps 739 mmHg 94%
05:00 +19°C° 0 mm 3 mps 739 mmHg 92%
06:00 +19°C° 0 mm 3 mps 739 mmHg 90%
07:00 +21°C° 0 mm 4 mps 740 mmHg 79%
08:00 +23°C° 0 mm 4 mps 740 mmHg 68%
09:00 +25°C° 0 mm 5 mps 741 mmHg 56%
10:00 +27°C° 0 mm 5 mps 741 mmHg 50%
11:00 +28°C° 0 mm 5 mps 741 mmHg 43%
12:00 +29°C° 0 mm 5 mps 741 mmHg 37%
13:00 +30°C° 0 mm 5 mps 741 mmHg 35%
14:00 +30°C° 0 mm 5 mps 741 mmHg 33%
15:00 +32°C° 0 mm 5 mps 741 mmHg 31%
16:00 +30°C° 0 mm 5 mps 741 mmHg 33%
17:00 +30°C° 0 mm 5 mps 741 mmHg 36%
18:00 +29°C° 0 mm 5 mps 741 mmHg 38%
19:00 +28°C° 0 mm 4 mps 741 mmHg 42%
20:00 +26°C° 0 mm 3 mps 742 mmHg 46%
21:00 +24°C° 0 mm 1 mps 742 mmHg 51%
22:00 +24°C° 0 mm 1 mps 742 mmHg 53%
23:00 +23°C° 0 mm 1 mps 742 mmHg 55%

Day after tomorrow, 1 August, Sunday

Time Temperature Precipitation Wind Pressure Humidity
00:00 +23°C° 0 mm 2 mps 743 mmHg 57%
01:00 +21°C° 0 mm 2 mps 743 mmHg 60%
02:00 +20°C° 0 mm 2 mps 743 mmHg 63%
03:00 +19°C° 0 mm 2 mps 743 mmHg 67%
04:00 +20°C° 0 mm 2 mps 744 mmHg 67%
05:00 +21°C° 0 mm 1 mps 744 mmHg 67%
06:00 +21°C° 0 mm 1 mps 744 mmHg 67%
07:00 +23°C° 0 mm 1 mps 744 mmHg 60%
08:00 +25°C° 0 mm 1 mps 745 mmHg 52%
09:00 +27°C° 0 mm 2 mps 745 mmHg 45%
10:00 +29°C° 0 mm 2 mps 745 mmHg 41%
11:00 +30°C° 0 mm 3 mps 745 mmHg 36%
12:00 +31°C° 0 mm 3 mps 745 mmHg 32%
13:00 +33°C° 0 mm 3 mps 745 mmHg 30%
14:00 +33°C° 0 mm 3 mps 744 mmHg 28%
15:00 +34°C° 0 mm 3 mps 744 mmHg 27%
16:00 +34°C° 0 mm 2 mps 744 mmHg 29%
17:00 +32°C° 0 mm 2 mps 744 mmHg 32%
18:00 +32°C° 0 mm 1 mps 743 mmHg 35%
19:00 +30°C° 0 mm 2 mps 743 mmHg 38%
20:00 +28°C° 0 mm 3 mps 743 mmHg 42%
21:00 +26°C° 0 mm 3 mps 743 mmHg 45%
22:00 +26°C° 0 mm 3 mps 743 mmHg 45%
23:00 +25°C° 0 mm 3 mps 743 mmHg 46%

2 August, Monday

Time Temperature Precipitation Wind Pressure Humidity
00:00 +25°C° 0 mm 3 mps 743 mmHg 46%
01:00 +24°C° 0 mm 3 mps 743 mmHg 48%
02:00 +22°C° 0 mm 3 mps 743 mmHg 51%
03:00 +22°C° 0 mm 3 mps 743 mmHg 53%
04:00 +22°C° 0 mm 3 mps 743 mmHg 55%
05:00 +22°C° 0 mm 3 mps 744 mmHg 57%
06:00 +22°C° 0 mm 3 mps 744 mmHg 59%
07:00 +25°C° 0 mm 3 mps 744 mmHg 54%
08:00 +28°C° 0 mm 4 mps 743 mmHg 48%
09:00 +30°C° 0 mm 5 mps 743 mmHg 43%
10:00 +32°C° 0 mm 5 mps 743 mmHg 40%
11:00 +34°C° 0 mm 5 mps 743 mmHg 36%
12:00 +35°C° 0 mm 5 mps 742 mmHg 33%
13:00 +36°C° 0 mm 5 mps 742 mmHg 31%
14:00 +36°C° 0 mm 5 mps 742 mmHg 30%
15:00 +36°C° 0 mm 5 mps 741 mmHg 29%
16:00 +35°C° 0 mm 4 mps 741 mmHg 32%
17:00 +33°C° 0 mm 3 mps 740 mmHg 34%
18:00 +31°C° 0 mm 3 mps 740 mmHg 37%
19:00 +29°C° 0.1 mm 3 mps 740 mmHg 42%
20:00 +28°C° 0.1 mm 3 mps 740 mmHg 47%
21:00 +26°C° 0.1 mm 3 mps 740 mmHg 52%
22:00 +26°C° 0.1 mm 3 mps 740 mmHg 53%
23:00 +25°C° 0.1 mm 4 mps 740 mmHg 54%

3 August, Tuesday

Time Temperature Precipitation Wind Pressure Humidity
00:00 +25°C° 0.1 mm 5 mps 740 mmHg 55%
01:00 +25°C° 0 mm 3 mps 739 mmHg 59%
02:00 +24°C° 0 mm 2 mps 739 mmHg 63%
03:00 +24°C° 0 mm 1 mps 739 mmHg 67%
04:00 +24°C° 0 mm 2 mps 740 mmHg 66%
05:00 +24°C° 0 mm 3 mps 740 mmHg 66%
06:00 +23°C° 0 mm 4 mps 740 mmHg 66%
07:00 +22°C° 0.3 mm 3 mps 740 mmHg 72%
08:00 +23°C° 0.3 mm 2 mps 741 mmHg 79%
09:00 +21°C° 0.3 mm 2 mps 741 mmHg 85%
10:00 +24°C° 0 mm 3 mps 741 mmHg 74%
11:00 +26°C° 0 mm 4 mps 741 mmHg 64%
12:00 +28°C° 0 mm 5 mps 741 mmHg 53%
13:00 +29°C° 0.2 mm 5 mps 741 mmHg 53%
14:00 +29°C° 0.2 mm 5 mps 740 mmHg 53%
15:00 +29°C° 0.2 mm 5 mps 740 mmHg 54%
16:00 +26°C° 4.6 mm 4 mps 740 mmHg 65%
17:00 +22°C° 4.6 mm 4 mps 740 mmHg 76%
18:00 +20°C° 4.6 mm 3 mps 740 mmHg 88%
19:00 +19°C° 0.3 mm 3 mps 740 mmHg 89%
20:00 +19°C° 0.3 mm 3 mps 740 mmHg 90%
21:00 +19°C° 0.3 mm 2 mps 741 mmHg 92%
22:00 +18°C° 0.3 mm 3 mps 741 mmHg 92%
23:00 +18°C° 0.3 mm 3 mps 741 mmHg 93%

4 August, Wednesday

Time Temperature Precipitation Wind Pressure Humidity
00:00 +18°C° 0.3 mm 4 mps 742 mmHg 93%
01:00 +17°C° 0 mm 4 mps 742 mmHg 94%
02:00 +17°C° 0 mm 4 mps 742 mmHg 94%
03:00 +16°C° 0 mm 3 mps 742 mmHg 95%
04:00 +15°C° 0 mm 4 mps 743 mmHg 94%
05:00 +15°C° 0 mm 4 mps 743 mmHg 93%
06:00 +15°C° 0 mm 4 mps 744 mmHg 92%
07:00 +17°C° 0 mm 4 mps 744 mmHg 84%
08:00 +19°C° 0 mm 4 mps 744 mmHg 76%
09:00 +20°C° 0 mm 4 mps 745 mmHg 68%
10:00 +21°C° 0 mm 4 mps 745 mmHg 61%
11:00 +23°C° 0 mm 4 mps 745 mmHg 54%
12:00 +25°C° 0 mm 4 mps 745 mmHg 47%
13:00 +26°C° 0 mm 4 mps 745 mmHg 44%
14:00 +27°C° 0 mm 4 mps 745 mmHg 41%
15:00 +27°C° 0 mm 4 mps 745 mmHg 38%
16:00 +26°C° 0 mm 4 mps 745 mmHg 41%
17:00 +25°C° 0 mm 4 mps 745 mmHg 45%
18:00 +23°C° 0 mm 5 mps 745 mmHg 48%
19:00 +22°C° 0 mm 4 mps 746 mmHg 52%
20:00 +21°C° 0 mm 3 mps 746 mmHg 56%
21:00 +20°C° 0 mm 2 mps 746 mmHg 59%
22:00 +19°C° 0 mm 2 mps 746 mmHg 61%
23:00 +18°C° 0 mm 2 mps 746 mmHg 62%
Show more